Regional Weather Roundup
Issued by NWS

Home | Current Version | Previous Version | Graphics & Text | Print | Product List | Glossary On
Versions: 1 2 3 4 5 6 7 8 9 10 11 12 13 14 15 16 17 18 19 20 21 22 23 24 25 26 27 28 29 30 31 32 33 34 35 36 37 38 39 40 41 42 43 44 45 46 47 48 49 50
000
ASUS45 KABQ 131901
RWRNM
NEW MEXICO REGIONAL WEATHER ROUNDUP
NATIONAL WEATHER SERVICE ALBUQUERQUE NM
1200 PM MST WED DEC 13 2017

NOTE: "FAIR" MEANS FEW OR NO CLOUDS BELOW 12,000 FEET AGL WITH NO
       SIGNIFICANT WEATHER OR OBSTRUCTIONS TO VISION.

      THIS PRODUCT IS RELEASED AS TWO VERSIONS.  ONE VERSION NEAR
      THE TOP OF THE HOUR CONTAINING PRELIMINARY DATA FROM ALBUQUERQUE
      AND OTHER STATIONS.  A FINAL VERSION WITH ADDITIONAL DATA IS
      ISSUED ABOUT 10 MINUTES AFTER THE HOUR.

NMZ501-503-504-510>518-132000-
NORTHWEST PLATEAU/NORTHCENTRAL MOUNTAINS

CITY           SKY/WX    TMP DP  RH WIND       PRES   REMARKS
FARMINGTON     FAIR      39   5  24 CALM      30.17F
LOS ALAMOS     FAIR      49   5  17 E7        30.17F
SANTA FE       FAIR      50   8  18 N6        30.14F
TAOS           FAIR      48   8  19 CALM      30.16F
ANGEL FIRE     FAIR      50   2  14 NE8       30.16F

$$
NMZ402-403-502-505>509-132000-
WESTCENTRAL MOUNTAINS/SOUTHWEST MOUNTAINS

CITY           SKY/WX    TMP DP  RH WIND       PRES   REMARKS
GALLUP         FAIR      48   3  15 VRB3      30.18F
GRANTS         FAIR      47   4  16 W7        30.18F
SILVER CITY    FAIR      57   9  15 S6        30.15F

$$
NMZ407-409-411-412-132000-
SOUTHERN DESERTS

CITY           SKY/WX    TMP DP  RH WIND       PRES   REMARKS
DEMING         FAIR      55  14  19 CALM      30.14F
LAS CRUCES     FAIR      57  11  16 CALM      30.14F
ALAMOGORDO     FAIR      54   9  16 CALM      30.13F
T OR C         FAIR      52   4  14 N7        30.14F

$$
NMZ519>523-132000-
CENTRAL VALLEYS/CENTRAL HIGHLANDS

CITY           SKY/WX    TMP DP  RH WIND       PRES   REMARKS
ALBUQUERQUE    FAIR      48   4  16 VRB3      30.16F
DOUBLE EAGLE   SUNNY     52   9  17 W8        30.17F
MORIARTY ARPT  FAIR      57   8  14 N9        30.14F
CLINES CORNERS FAIR      54   7  15 NW9       30.14F
BELEN          FAIR      49   4  15 NE5       30.16F
SOCORRO        FAIR      48   3  15 N8        30.15F

$$
NMZ524>526-539-540-132000-
SOUTHCENTRAL MOUNTAINS

CITY           SKY/WX    TMP DP  RH WIND       PRES   REMARKS
RUIDOSO        FAIR      55  -2   9 NW17G23   30.14F

$$
NMZ527>531-132000-
NORTHEAST HIGHLANDS/NORTHEAST PLAINS

CITY           SKY/WX    TMP DP  RH WIND       PRES   REMARKS
LAS VEGAS      FAIR      54   8  16 E18G30    30.13F
RATON          FAIR      55   4  12 NE13      30.10F
CLAYTON        FAIR      56   8  14 N22G29    30.08F

$$
NMZ532>537-132000-
EASTCENTRAL PLAINS

CITY           SKY/WX    TMP DP  RH WIND       PRES   REMARKS
SANTA ROSA     FAIR      60  11  14 NE15G24   30.08F
TUCUMCARI      FAIR      64   8  11 NE18G30   30.04F
CANNON AFB     NOT AVBL
CLOVIS AIRPORT FAIR      60  12  15 NE25G35   30.03F

$$
NMZ028-029-538-132000-
SOUTHEAST PLAINS

CITY           SKY/WX    TMP DP  RH WIND       PRES   REMARKS
ROSWELL        FAIR      52  15  23 CALM      30.03F
ARTESIA        FAIR      55  12  18 E5        30.03F
CARLSBAD       FAIR      55  21  26 SE5       30.03F
HOBBS          SUNNY     64   7  10 SW14      30.02F


$$



USA.gov is the U.S. government's official web portal to all federal, state and local government web resources and services.